#datetime,building,power
2024-02-23T00:00:00,thc,3.85
2024-02-23T00:01:00,thc,4.71
2024-02-23T00:02:00,thc,4.67
2024-02-23T00:03:00,thc,4.65
2024-02-23T00:04:00,thc,4.74
2024-02-23T00:05:00,thc,4.71
2024-02-23T00:06:00,thc,4.76
2024-02-23T00:07:00,thc,4.57
2024-02-23T00:08:00,thc,3.66
2024-02-23T00:09:00,thc,4.60
2024-02-23T00:10:00,thc,3.62
2024-02-23T00:11:00,thc,3.59
2024-02-23T00:12:00,thc,3.62
2024-02-23T00:13:00,thc,3.61
2024-02-23T00:14:00,thc,3.55
2024-02-23T00:15:00,thc,3.49
2024-02-23T00:16:00,thc,3.58
2024-02-23T00:17:00,thc,3.38
2024-02-23T00:18:00,thc,3.30
2024-02-23T00:19:00,thc,3.28
2024-02-23T00:20:00,thc,3.15
2024-02-23T00:21:00,thc,3.32
2024-02-23T00:22:00,thc,3.31
2024-02-23T00:23:00,thc,3.42
2024-02-23T00:24:00,thc,3.53
2024-02-23T00:25:00,thc,3.36
2024-02-23T00:26:00,thc,3.33
2024-02-23T00:27:00,thc,3.34
2024-02-23T00:28:00,thc,3.45
2024-02-23T00:29:00,thc,4.38
2024-02-23T00:30:00,thc,4.39
2024-02-23T00:31:00,thc,4.32
2024-02-23T00:32:00,thc,4.30
2024-02-23T00:33:00,thc,4.32
2024-02-23T00:34:00,thc,4.28
2024-02-23T00:35:00,thc,4.91
2024-02-23T00:36:00,thc,5.33
2024-02-23T00:37:00,thc,4.57
2024-02-23T00:38:00,thc,4.64
2024-02-23T00:39:00,thc,4.81
2024-02-23T00:40:00,thc,4.98
2024-02-23T00:41:00,thc,4.83
2024-02-23T00:42:00,thc,5.49
2024-02-23T00:43:00,thc,5.45
2024-02-23T00:44:00,thc,5.31
2024-02-23T00:45:00,thc,5.24
2024-02-23T00:46:00,thc,4.10
2024-02-23T00:47:00,thc,4.07
2024-02-23T00:48:00,thc,4.21
2024-02-23T00:49:00,thc,4.06
2024-02-23T00:50:00,thc,3.34
2024-02-23T00:51:00,thc,3.34
2024-02-23T00:52:00,thc,4.38
2024-02-23T00:53:00,thc,4.34
2024-02-23T00:54:00,thc,4.46
2024-02-23T00:55:00,thc,5.30
2024-02-23T00:56:00,thc,5.37
2024-02-23T00:57:00,thc,5.34
2024-02-23T00:58:00,thc,4.09
2024-02-23T00:59:00,thc,4.22
2024-02-23T01:00:00,thc,4.25
2024-02-23T01:01:00,thc,4.32
2024-02-23T01:02:00,thc,4.13
2024-02-23T01:03:00,thc,3.42
2024-02-23T01:04:00,thc,3.60
2024-02-23T01:05:00,thc,3.42
2024-02-23T01:06:00,thc,3.43
2024-02-23T01:07:00,thc,3.39
2024-02-23T01:08:00,thc,3.43
2024-02-23T01:09:00,thc,3.43
2024-02-23T01:10:00,thc,3.59
2024-02-23T01:11:00,thc,3.74
2024-02-23T01:12:00,thc,3.76
2024-02-23T01:13:00,thc,4.95
2024-02-23T01:14:00,thc,4.99
2024-02-23T01:15:00,thc,5.79
2024-02-23T01:16:00,thc,5.72
2024-02-23T01:17:00,thc,5.56
2024-02-23T01:18:00,thc,5.32
2024-02-23T01:19:00,thc,4.35
2024-02-23T01:20:00,thc,4.26
2024-02-23T01:21:00,thc,4.18
2024-02-23T01:22:00,thc,3.75
2024-02-23T01:23:00,thc,4.37
2024-02-23T01:24:00,thc,4.41
2024-02-23T01:25:00,thc,4.26
2024-02-23T01:26:00,thc,4.26
2024-02-23T01:27:00,thc,4.25
2024-02-23T01:28:00,thc,4.42
2024-02-23T01:29:00,thc,3.63
2024-02-23T01:30:00,thc,3.62
2024-02-23T01:31:00,thc,3.68
2024-02-23T01:32:00,thc,3.62
2024-02-23T01:33:00,thc,3.45
2024-02-23T01:34:00,thc,3.40
2024-02-23T01:35:00,thc,3.39
2024-02-23T01:36:00,thc,3.27
2024-02-23T01:37:00,thc,3.27
2024-02-23T01:38:00,thc,3.23
2024-02-23T01:39:00,thc,3.21
2024-02-23T01:40:00,thc,3.16
2024-02-23T01:41:00,thc,3.17
2024-02-23T01:42:00,thc,3.09
2024-02-23T01:43:00,thc,3.00
2024-02-23T01:44:00,thc,4.90
2024-02-23T01:45:00,thc,5.46
2024-02-23T01:46:00,thc,5.48
2024-02-23T01:47:00,thc,5.39
2024-02-23T01:48:00,thc,5.33
2024-02-23T01:49:00,thc,6.51
2024-02-23T01:50:00,thc,6.49
2024-02-23T01:51:00,thc,6.10
2024-02-23T01:52:00,thc,4.41
2024-02-23T01:53:00,thc,5.32
2024-02-23T01:54:00,thc,5.33
2024-02-23T01:55:00,thc,4.19
2024-02-23T01:56:00,thc,4.23
2024-02-23T01:57:00,thc,4.29
2024-02-23T01:58:00,thc,4.27
2024-02-23T01:59:00,thc,4.22
2024-02-23T02:00:00,thc,3.28
2024-02-23T02:01:00,thc,3.35
2024-02-23T02:02:00,thc,3.26
2024-02-23T02:03:00,thc,3.52
2024-02-23T02:04:00,thc,3.50
2024-02-23T02:05:00,thc,3.43
2024-02-23T02:06:00,thc,3.49
2024-02-23T02:07:00,thc,3.42
2024-02-23T02:08:00,thc,3.62
2024-02-23T02:09:00,thc,3.31
2024-02-23T02:10:00,thc,3.28
2024-02-23T02:11:00,thc,3.29
2024-02-23T02:12:00,thc,3.25
2024-02-23T02:13:00,thc,3.10
2024-02-23T02:14:00,thc,3.22
2024-02-23T02:15:00,thc,3.35
2024-02-23T02:16:00,thc,4.42
2024-02-23T02:17:00,thc,4.39
2024-02-23T02:18:00,thc,4.44
2024-02-23T02:19:00,thc,4.42
2024-02-23T02:20:00,thc,4.43
2024-02-23T02:21:00,thc,4.36
2024-02-23T02:22:00,thc,3.25
2024-02-23T02:23:00,thc,3.24
2024-02-23T02:24:00,thc,3.33
2024-02-23T02:25:00,thc,5.29
2024-02-23T02:26:00,thc,5.02
2024-02-23T02:27:00,thc,5.00
2024-02-23T02:28:00,thc,6.09
2024-02-23T02:29:00,thc,6.08
2024-02-23T02:30:00,thc,6.04
2024-02-23T02:31:00,thc,5.69
2024-02-23T02:32:00,thc,4.33
2024-02-23T02:33:00,thc,4.34
2024-02-23T02:34:00,thc,3.19
2024-02-23T02:35:00,thc,3.11
2024-02-23T02:36:00,thc,3.06
2024-02-23T02:37:00,thc,3.03
2024-02-23T02:38:00,thc,3.23
2024-02-23T02:39:00,thc,3.19
2024-02-23T02:40:00,thc,3.24
2024-02-23T02:41:00,thc,3.30
2024-02-23T02:42:00,thc,3.28
2024-02-23T02:43:00,thc,3.18
2024-02-23T02:44:00,thc,3.45
2024-02-23T02:45:00,thc,3.26
2024-02-23T02:46:00,thc,3.25
2024-02-23T02:47:00,thc,3.24
2024-02-23T02:48:00,thc,3.23
2024-02-23T02:49:00,thc,3.02
2024-02-23T02:50:00,thc,3.05
2024-02-23T02:51:00,thc,4.18
2024-02-23T02:52:00,thc,4.08
2024-02-23T02:53:00,thc,4.07
2024-02-23T02:54:00,thc,3.98
2024-02-23T02:55:00,thc,3.96
2024-02-23T02:56:00,thc,3.98
2024-02-23T02:57:00,thc,2.87
2024-02-23T02:58:00,thc,2.91
2024-02-23T02:59:00,thc,2.85
2024-02-23T03:00:00,thc,2.82
2024-02-23T03:01:00,thc,2.83
2024-02-23T03:02:00,thc,3.98
2024-02-23T03:03:00,thc,3.96
2024-02-23T03:04:00,thc,3.95
2024-02-23T03:05:00,thc,4.10
2024-02-23T03:06:00,thc,4.10
2024-02-23T03:07:00,thc,4.19
2024-02-23T03:08:00,thc,4.20
2024-02-23T03:09:00,thc,4.13
2024-02-23T03:10:00,thc,5.26
2024-02-23T03:11:00,thc,4.93
2024-02-23T03:12:00,thc,5.08
2024-02-23T03:13:00,thc,4.24
2024-02-23T03:14:00,thc,4.30
2024-02-23T03:15:00,thc,4.29
2024-02-23T03:16:00,thc,4.26
2024-02-23T03:17:00,thc,3.42
2024-02-23T03:18:00,thc,3.33
2024-02-23T03:19:00,thc,3.37
2024-02-23T03:20:00,thc,3.09
2024-02-23T03:21:00,thc,4.21
2024-02-23T03:22:00,thc,4.16
2024-02-23T03:23:00,thc,4.03
2024-02-23T03:24:00,thc,4.14
2024-02-23T03:25:00,thc,4.21
2024-02-23T03:26:00,thc,4.14
2024-02-23T03:27:00,thc,3.02
2024-02-23T03:28:00,thc,2.94
2024-02-23T03:29:00,thc,2.94
2024-02-23T03:30:00,thc,2.91
2024-02-23T03:31:00,thc,2.91
2024-02-23T03:32:00,thc,2.85
2024-02-23T03:33:00,thc,2.94
2024-02-23T03:34:00,thc,2.94
2024-02-23T03:35:00,thc,2.87
2024-02-23T03:36:00,thc,2.94
2024-02-23T03:37:00,thc,2.91
2024-02-23T03:38:00,thc,2.92
2024-02-23T03:39:00,thc,2.86
2024-02-23T03:40:00,thc,2.86
2024-02-23T03:41:00,thc,3.55
2024-02-23T03:42:00,thc,2.91
2024-02-23T03:43:00,thc,2.90
2024-02-23T03:44:00,thc,2.88
2024-02-23T03:45:00,thc,2.88
2024-02-23T03:46:00,thc,2.87
2024-02-23T03:47:00,thc,2.91
2024-02-23T03:48:00,thc,3.16
2024-02-23T03:49:00,thc,3.16
2024-02-23T03:50:00,thc,3.17
2024-02-23T03:51:00,thc,4.30
2024-02-23T03:52:00,thc,4.30
2024-02-23T03:53:00,thc,5.37
2024-02-23T03:54:00,thc,6.28
2024-02-23T03:55:00,thc,6.98
2024-02-23T03:56:00,thc,6.97
2024-02-23T03:57:00,thc,6.03
2024-02-23T03:58:00,thc,5.84
2024-02-23T03:59:00,thc,4.80
2024-02-23T04:00:00,thc,4.54
2024-02-23T04:01:00,thc,3.50
2024-02-23T04:02:00,thc,2.83
2024-02-23T04:03:00,thc,2.81
2024-02-23T04:04:00,thc,2.83
2024-02-23T04:05:00,thc,2.83
2024-02-23T04:06:00,thc,2.83
2024-02-23T04:07:00,thc,2.82
2024-02-23T04:08:00,thc,2.88
2024-02-23T04:09:00,thc,2.93
2024-02-23T04:10:00,thc,2.88
2024-02-23T04:11:00,thc,2.86
2024-02-23T04:12:00,thc,2.78
2024-02-23T04:13:00,thc,2.77
2024-02-23T04:14:00,thc,2.78
2024-02-23T04:15:00,thc,2.83
2024-02-23T04:16:00,thc,2.88
2024-02-23T04:17:00,thc,2.92
2024-02-23T04:18:00,thc,2.96
2024-02-23T04:19:00,thc,2.91
2024-02-23T04:20:00,thc,2.99
2024-02-23T04:21:00,thc,2.96
2024-02-23T04:22:00,thc,4.20
2024-02-23T04:23:00,thc,4.10
2024-02-23T04:24:00,thc,4.29
2024-02-23T04:25:00,thc,4.36
2024-02-23T04:26:00,thc,4.31
2024-02-23T04:27:00,thc,4.31
2024-02-23T04:28:00,thc,3.10
2024-02-23T04:29:00,thc,3.22
2024-02-23T04:30:00,thc,3.02
2024-02-23T04:31:00,thc,3.06
2024-02-23T04:32:00,thc,3.12
2024-02-23T04:33:00,thc,4.22
2024-02-23T04:34:00,thc,4.41
2024-02-23T04:35:00,thc,5.03
2024-02-23T04:36:00,thc,4.97
2024-02-23T04:37:00,thc,5.17
2024-02-23T04:38:00,thc,4.95
2024-02-23T04:39:00,thc,3.86
2024-02-23T04:40:00,thc,3.85
2024-02-23T04:41:00,thc,3.88
2024-02-23T04:42:00,thc,3.05
2024-02-23T04:43:00,thc,3.11
2024-02-23T04:44:00,thc,3.37
2024-02-23T04:45:00,thc,3.05
2024-02-23T04:46:00,thc,3.04
2024-02-23T04:47:00,thc,3.04
2024-02-23T04:48:00,thc,3.03
2024-02-23T04:49:00,thc,3.01
2024-02-23T04:50:00,thc,3.03
2024-02-23T04:51:00,thc,3.04
2024-02-23T04:52:00,thc,2.95
2024-02-23T04:53:00,thc,2.95
2024-02-23T04:54:00,thc,2.95
2024-02-23T04:55:00,thc,4.16
2024-02-23T04:56:00,thc,4.17
2024-02-23T04:57:00,thc,4.07
2024-02-23T04:58:00,thc,4.08
2024-02-23T04:59:00,thc,4.30
2024-02-23T05:00:00,thc,4.36
2024-02-23T05:01:00,thc,3.39
2024-02-23T05:02:00,thc,3.49
2024-02-23T05:03:00,thc,3.32
2024-02-23T05:04:00,thc,3.21
2024-02-23T05:05:00,thc,3.25
2024-02-23T05:06:00,thc,3.03
2024-02-23T05:07:00,thc,2.95
2024-02-23T05:08:00,thc,2.90
2024-02-23T05:09:00,thc,2.94
2024-02-23T05:10:00,thc,4.03
2024-02-23T05:11:00,thc,3.93
2024-02-23T05:12:00,thc,3.94
2024-02-23T05:13:00,thc,3.93
2024-02-23T05:14:00,thc,4.78
2024-02-23T05:15:00,thc,4.76
2024-02-23T05:16:00,thc,3.72
2024-02-23T05:17:00,thc,3.76
2024-02-23T05:18:00,thc,4.03
2024-02-23T05:19:00,thc,3.71
2024-02-23T05:20:00,thc,3.83
2024-02-23T05:21:00,thc,2.87
2024-02-23T05:22:00,thc,3.00
2024-02-23T05:23:00,thc,2.88
2024-02-23T05:24:00,thc,2.90
2024-02-23T05:25:00,thc,2.83
2024-02-23T05:26:00,thc,3.99
2024-02-23T05:27:00,thc,4.11
2024-02-23T05:28:00,thc,4.23
2024-02-23T05:29:00,thc,4.18
2024-02-23T05:30:00,thc,4.13
2024-02-23T05:31:00,thc,4.18
2024-02-23T05:32:00,thc,3.89
2024-02-23T05:33:00,thc,3.21
2024-02-23T05:34:00,thc,3.23
2024-02-23T05:35:00,thc,3.23
2024-02-23T05:36:00,thc,3.22
2024-02-23T05:37:00,thc,3.17
2024-02-23T05:38:00,thc,3.18
2024-02-23T05:39:00,thc,3.40
2024-02-23T05:40:00,thc,3.27
2024-02-23T05:41:00,thc,3.18
2024-02-23T05:42:00,thc,3.12
2024-02-23T05:43:00,thc,3.15
2024-02-23T05:44:00,thc,3.20
2024-02-23T05:45:00,thc,3.18
2024-02-23T05:46:00,thc,3.11
2024-02-23T05:47:00,thc,3.02
2024-02-23T05:48:00,thc,3.02
2024-02-23T05:49:00,thc,3.01
2024-02-23T05:50:00,thc,3.05
2024-02-23T05:51:00,thc,3.91
2024-02-23T05:52:00,thc,5.05
2024-02-23T05:53:00,thc,5.02
2024-02-23T05:54:00,thc,4.97
2024-02-23T05:55:00,thc,4.95
2024-02-23T05:56:00,thc,4.94
2024-02-23T05:57:00,thc,4.80
2024-02-23T05:58:00,thc,4.27
2024-02-23T05:59:00,thc,4.14
2024-02-23T06:00:00,thc,4.11
2024-02-23T06:01:00,thc,4.22
2024-02-23T06:02:00,thc,4.09
2024-02-23T06:03:00,thc,3.14
2024-02-23T06:04:00,thc,2.96
2024-02-23T06:05:00,thc,2.97
2024-02-23T06:06:00,thc,2.97
2024-02-23T06:07:00,thc,2.99
2024-02-23T06:08:00,thc,3.03
2024-02-23T06:09:00,thc,3.03
2024-02-23T06:10:00,thc,3.47
2024-02-23T06:11:00,thc,3.46
2024-02-23T06:12:00,thc,3.44
2024-02-23T06:13:00,thc,3.38
2024-02-23T06:14:00,thc,3.38
2024-02-23T06:15:00,thc,3.29
2024-02-23T06:16:00,thc,3.19
2024-02-23T06:17:00,thc,3.21
2024-02-23T06:18:00,thc,3.07
2024-02-23T06:19:00,thc,3.12
2024-02-23T06:20:00,thc,3.05
2024-02-23T06:21:00,thc,2.99
2024-02-23T06:22:00,thc,3.13
2024-02-23T06:23:00,thc,3.08
2024-02-23T06:24:00,thc,3.07
2024-02-23T06:25:00,thc,3.08
2024-02-23T06:26:00,thc,3.86
2024-02-23T06:27:00,thc,4.91
2024-02-23T06:28:00,thc,4.96
2024-02-23T06:29:00,thc,5.72
2024-02-23T06:30:00,thc,5.69
2024-02-23T06:31:00,thc,5.66
2024-02-23T06:32:00,thc,5.40
2024-02-23T06:33:00,thc,4.82
2024-02-23T06:34:00,thc,4.02
2024-02-23T06:35:00,thc,4.09
2024-02-23T06:36:00,thc,4.13
2024-02-23T06:37:00,thc,4.04
2024-02-23T06:38:00,thc,4.04
2024-02-23T06:39:00,thc,3.04
2024-02-23T06:40:00,thc,2.92
2024-02-23T06:41:00,thc,3.06
2024-02-23T06:42:00,thc,3.22
2024-02-23T06:43:00,thc,2.99
2024-02-23T06:44:00,thc,2.73
2024-02-23T06:45:00,thc,3.34
2024-02-23T06:46:00,thc,2.90
2024-02-23T06:47:00,thc,2.85
2024-02-23T06:48:00,thc,2.85
2024-02-23T06:49:00,thc,2.77
2024-02-23T06:50:00,thc,2.77
2024-02-23T06:51:00,thc,2.77
2024-02-23T06:52:00,thc,2.58
2024-02-23T06:53:00,thc,2.57
2024-02-23T06:54:00,thc,2.58
2024-02-23T06:55:00,thc,2.56
2024-02-23T06:56:00,thc,2.51
2024-02-23T06:57:00,thc,2.56
2024-02-23T06:58:00,thc,2.68
2024-02-23T06:59:00,thc,3.54
2024-02-23T07:00:00,thc,4.49
2024-02-23T07:01:00,thc,5.33
2024-02-23T07:02:00,thc,5.66
2024-02-23T07:03:00,thc,5.55
2024-02-23T07:04:00,thc,5.58
2024-02-23T07:05:00,thc,5.59
2024-02-23T07:06:00,thc,5.37
2024-02-23T07:07:00,thc,4.45
2024-02-23T07:08:00,thc,4.54
2024-02-23T07:09:00,thc,3.68
2024-02-23T07:10:00,thc,3.68
2024-02-23T07:11:00,thc,3.59
2024-02-23T07:12:00,thc,3.63
2024-02-23T07:13:00,thc,4.53
2024-02-23T07:14:00,thc,4.50
2024-02-23T07:15:00,thc,4.48
2024-02-23T07:16:00,thc,5.56
2024-02-23T07:17:00,thc,5.49
2024-02-23T07:18:00,thc,5.46
2024-02-23T07:19:00,thc,4.79
2024-02-23T07:20:00,thc,4.77
2024-02-23T07:21:00,thc,4.75
2024-02-23T07:22:00,thc,4.17
2024-02-23T07:23:00,thc,4.08
2024-02-23T07:24:00,thc,3.63
2024-02-23T07:25:00,thc,3.54
2024-02-23T07:26:00,thc,3.65
2024-02-23T07:27:00,thc,3.55
2024-02-23T07:28:00,thc,3.54
2024-02-23T07:29:00,thc,3.46
2024-02-23T07:30:00,thc,4.29
2024-02-23T07:31:00,thc,4.35
2024-02-23T07:32:00,thc,5.21
2024-02-23T07:33:00,thc,4.28
2024-02-23T07:34:00,thc,4.32
2024-02-23T07:35:00,thc,4.58
2024-02-23T07:36:00,thc,3.69
2024-02-23T07:37:00,thc,3.69
2024-02-23T07:38:00,thc,4.87
2024-02-23T07:39:00,thc,3.83
2024-02-23T07:40:00,thc,4.93
2024-02-23T07:41:00,thc,4.78
2024-02-23T07:42:00,thc,3.69
2024-02-23T07:43:00,thc,3.68
2024-02-23T07:44:00,thc,3.65
2024-02-23T07:45:00,thc,3.94
2024-02-23T07:46:00,thc,3.88
2024-02-23T07:47:00,thc,3.86
2024-02-23T07:48:00,thc,3.79
2024-02-23T07:49:00,thc,3.74
2024-02-23T07:50:00,thc,3.75
2024-02-23T07:51:00,thc,3.73
2024-02-23T07:52:00,thc,3.54
2024-02-23T07:53:00,thc,3.39
2024-02-23T07:54:00,thc,2.86
2024-02-23T07:55:00,thc,2.49
2024-02-23T07:56:00,thc,2.41
2024-02-23T07:57:00,thc,2.49
2024-02-23T07:58:00,thc,4.89
2024-02-23T07:59:00,thc,3.76
2024-02-23T08:00:00,thc,3.99
2024-02-23T08:01:00,thc,4.93
2024-02-23T08:02:00,thc,4.93
2024-02-23T08:03:00,thc,5.13
2024-02-23T08:04:00,thc,5.14
2024-02-23T08:05:00,thc,5.98
2024-02-23T08:06:00,thc,5.73
2024-02-23T08:07:00,thc,5.67
2024-02-23T08:08:00,thc,5.54
2024-02-23T08:09:00,thc,4.57
2024-02-23T08:10:00,thc,4.50
2024-02-23T08:11:00,thc,3.44
2024-02-23T08:12:00,thc,2.69
2024-02-23T08:13:00,thc,2.62
2024-02-23T08:14:00,thc,2.69
2024-02-23T08:15:00,thc,3.31
2024-02-23T08:16:00,thc,4.10
2024-02-23T08:17:00,thc,4.12
2024-02-23T08:18:00,thc,4.15
2024-02-23T08:19:00,thc,4.16
2024-02-23T08:20:00,thc,4.38
2024-02-23T08:21:00,thc,3.26
2024-02-23T08:22:00,thc,3.29
2024-02-23T08:23:00,thc,3.27
2024-02-23T08:24:00,thc,3.32
2024-02-23T08:25:00,thc,3.58
2024-02-23T08:26:00,thc,3.61
2024-02-23T08:27:00,thc,3.53
2024-02-23T08:28:00,thc,3.51
2024-02-23T08:29:00,thc,6.35
2024-02-23T08:30:00,thc,5.54
2024-02-23T08:31:00,thc,5.51
2024-02-23T08:32:00,thc,5.48
2024-02-23T08:33:00,thc,5.78
2024-02-23T08:34:00,thc,5.91
2024-02-23T08:35:00,thc,6.13
2024-02-23T08:36:00,thc,6.30
2024-02-23T08:37:00,thc,5.38
2024-02-23T08:38:00,thc,3.48
2024-02-23T08:39:00,thc,3.15
2024-02-23T08:40:00,thc,4.36
2024-02-23T08:41:00,thc,4.28
2024-02-23T08:42:00,thc,5.14
2024-02-23T08:43:00,thc,6.08
2024-02-23T08:44:00,thc,4.54
2024-02-23T08:45:00,thc,4.42
2024-02-23T08:46:00,thc,3.43
2024-02-23T08:47:00,thc,3.40
2024-02-23T08:48:00,thc,3.76
2024-02-23T08:49:00,thc,3.34
2024-02-23T08:50:00,thc,3.18
2024-02-23T08:51:00,thc,3.56
2024-02-23T08:52:00,thc,3.50
2024-02-23T08:53:00,thc,3.56
2024-02-23T08:54:00,thc,3.53
2024-02-23T08:55:00,thc,3.55
2024-02-23T08:56:00,thc,5.37
2024-02-23T08:57:00,thc,8.48
2024-02-23T08:58:00,thc,12.05
2024-02-23T08:59:00,thc,11.28
2024-02-23T09:00:00,thc,11.25
2024-02-23T09:01:00,thc,11.26
2024-02-23T09:02:00,thc,11.48
2024-02-23T09:03:00,thc,11.37
2024-02-23T09:04:00,thc,11.34
2024-02-23T09:05:00,thc,7.22
2024-02-23T09:06:00,thc,7.18
2024-02-23T09:07:00,thc,9.31
2024-02-23T09:08:00,thc,12.70
2024-02-23T09:09:00,thc,14.70
2024-02-23T09:10:00,thc,10.61
2024-02-23T09:11:00,thc,10.14
2024-02-23T09:12:00,thc,14.80
2024-02-23T09:13:00,thc,16.40
2024-02-23T09:14:00,thc,18.31
2024-02-23T09:15:00,thc,14.43
2024-02-23T09:16:00,thc,8.80
2024-02-23T09:17:00,thc,14.41
2024-02-23T09:18:00,thc,15.96
2024-02-23T09:19:00,thc,10.81
2024-02-23T09:20:00,thc,10.30
2024-02-23T09:21:00,thc,8.19
2024-02-23T09:22:00,thc,8.33
2024-02-23T09:23:00,thc,8.17
2024-02-23T09:24:00,thc,9.64
2024-02-23T09:25:00,thc,7.59
2024-02-23T09:26:00,thc,7.86
2024-02-23T09:27:00,thc,3.47
2024-02-23T09:28:00,thc,9.43
2024-02-23T09:29:00,thc,13.32
2024-02-23T09:30:00,thc,7.38
2024-02-23T09:31:00,thc,3.38
2024-02-23T09:32:00,thc,3.30
2024-02-23T09:33:00,thc,11.45
2024-02-23T09:34:00,thc,11.41
2024-02-23T09:35:00,thc,4.91
2024-02-23T09:36:00,thc,4.17
2024-02-23T09:37:00,thc,9.10
2024-02-23T09:38:00,thc,13.54
2024-02-23T09:39:00,thc,13.68
2024-02-23T09:40:00,thc,9.64
2024-02-23T09:41:00,thc,7.41
2024-02-23T09:42:00,thc,5.67
2024-02-23T09:43:00,thc,5.29
2024-02-23T09:44:00,thc,7.65
2024-02-23T09:45:00,thc,3.72
2024-02-23T09:46:00,thc,8.10
2024-02-23T09:47:00,thc,9.38
2024-02-23T09:48:00,thc,13.93
2024-02-23T09:49:00,thc,7.58
2024-02-23T09:50:00,thc,8.48
2024-02-23T09:51:00,thc,12.51
2024-02-23T09:52:00,thc,12.01
2024-02-23T09:53:00,thc,8.55
2024-02-23T09:54:00,thc,8.52
2024-02-23T09:55:00,thc,8.08
2024-02-23T09:56:00,thc,8.48
2024-02-23T09:57:00,thc,8.21
2024-02-23T09:58:00,thc,7.78
2024-02-23T09:59:00,thc,7.72
2024-02-23T10:00:00,thc,7.68
2024-02-23T10:01:00,thc,7.79
2024-02-23T10:02:00,thc,7.74
2024-02-23T10:03:00,thc,8.58
2024-02-23T10:04:00,thc,8.69
2024-02-23T10:05:00,thc,9.57
2024-02-23T10:06:00,thc,5.41
2024-02-23T10:07:00,thc,5.58
2024-02-23T10:08:00,thc,9.67
2024-02-23T10:09:00,thc,9.53
2024-02-23T10:10:00,thc,9.44
2024-02-23T10:11:00,thc,3.74
2024-02-23T10:12:00,thc,3.73
2024-02-23T10:13:00,thc,7.84
2024-02-23T10:14:00,thc,7.74
2024-02-23T10:15:00,thc,8.30
2024-02-23T10:16:00,thc,4.20
2024-02-23T10:17:00,thc,4.34
2024-02-23T10:18:00,thc,9.50
2024-02-23T10:19:00,thc,9.55
2024-02-23T10:20:00,thc,9.39
2024-02-23T10:21:00,thc,4.85
2024-02-23T10:22:00,thc,4.91
2024-02-23T10:23:00,thc,9.47
2024-02-23T10:24:00,thc,8.65
2024-02-23T10:25:00,thc,8.12
2024-02-23T10:26:00,thc,3.17
2024-02-23T10:27:00,thc,3.68
2024-02-23T10:28:00,thc,7.70
2024-02-23T10:29:00,thc,7.07
2024-02-23T10:30:00,thc,3.01
2024-02-23T10:31:00,thc,4.92
2024-02-23T10:32:00,thc,4.58
2024-02-23T10:33:00,thc,8.14
2024-02-23T10:34:00,thc,8.03
2024-02-23T10:35:00,thc,4.63
2024-02-23T10:36:00,thc,4.50
2024-02-23T10:37:00,thc,8.05
2024-02-23T10:38:00,thc,7.16
2024-02-23T10:39:00,thc,7.63
2024-02-23T10:40:00,thc,3.68
2024-02-23T10:41:00,thc,3.14
2024-02-23T10:42:00,thc,7.18
2024-02-23T10:43:00,thc,7.13
2024-02-23T10:44:00,thc,3.41
2024-02-23T10:45:00,thc,3.04
2024-02-23T10:46:00,thc,5.65
2024-02-23T10:47:00,thc,5.61
2024-02-23T10:48:00,thc,5.62
2024-02-23T10:49:00,thc,5.20
2024-02-23T10:50:00,thc,6.34
2024-02-23T10:51:00,thc,6.24
2024-02-23T10:52:00,thc,5.78
2024-02-23T10:53:00,thc,6.09
2024-02-23T10:54:00,thc,7.87
2024-02-23T10:55:00,thc,7.62
2024-02-23T10:56:00,thc,7.98
2024-02-23T10:57:00,thc,7.96
2024-02-23T10:58:00,thc,7.61
2024-02-23T10:59:00,thc,3.76
2024-02-23T11:00:00,thc,3.76
2024-02-23T11:01:00,thc,7.66
2024-02-23T11:02:00,thc,10.03
2024-02-23T11:03:00,thc,7.00
2024-02-23T11:04:00,thc,11.24
2024-02-23T11:05:00,thc,10.27
2024-02-23T11:06:00,thc,10.13
2024-02-23T11:07:00,thc,4.69
2024-02-23T11:08:00,thc,10.57
2024-02-23T11:09:00,thc,7.98
2024-02-23T11:10:00,thc,5.52
2024-02-23T11:11:00,thc,2.95
2024-02-23T11:12:00,thc,6.94
2024-02-23T11:13:00,thc,9.51
2024-02-23T11:14:00,thc,5.43
2024-02-23T11:15:00,thc,10.13
2024-02-23T11:16:00,thc,7.51
2024-02-23T11:17:00,thc,3.41
2024-02-23T11:18:00,thc,3.37
2024-02-23T11:19:00,thc,9.93
2024-02-23T11:20:00,thc,9.93
2024-02-23T11:21:00,thc,2.81
2024-02-23T11:22:00,thc,7.04
2024-02-23T11:23:00,thc,7.60
2024-02-23T11:24:00,thc,10.08
2024-02-23T11:25:00,thc,2.93
2024-02-23T11:26:00,thc,5.17
2024-02-23T11:27:00,thc,7.63
2024-02-23T11:28:00,thc,7.59
2024-02-23T11:29:00,thc,5.21
2024-02-23T11:30:00,thc,5.66
2024-02-23T11:31:00,thc,6.14
2024-02-23T11:32:00,thc,7.61
2024-02-23T11:33:00,thc,3.02
2024-02-23T11:34:00,thc,3.19
2024-02-23T11:35:00,thc,8.73
2024-02-23T11:36:00,thc,9.59
2024-02-23T11:37:00,thc,6.53
2024-02-23T11:38:00,thc,8.03
2024-02-23T11:39:00,thc,13.52
2024-02-23T11:40:00,thc,5.36
2024-02-23T11:41:00,thc,4.89
2024-02-23T11:42:00,thc,9.34
2024-02-23T11:43:00,thc,6.87
2024-02-23T11:44:00,thc,2.74
2024-02-23T11:45:00,thc,9.54
2024-02-23T11:46:00,thc,6.81
2024-02-23T11:47:00,thc,2.90
2024-02-23T11:48:00,thc,2.90
2024-02-23T11:49:00,thc,7.05
2024-02-23T11:50:00,thc,7.51
2024-02-23T11:51:00,thc,7.41
2024-02-23T11:52:00,thc,7.25
2024-02-23T11:53:00,thc,9.00
2024-02-23T11:54:00,thc,8.99
2024-02-23T11:55:00,thc,8.98
2024-02-23T11:56:00,thc,7.47
2024-02-23T11:57:00,thc,7.51
2024-02-23T11:58:00,thc,9.12
2024-02-23T11:59:00,thc,7.21
2024-02-23T12:00:00,thc,3.02
2024-02-23T12:01:00,thc,9.63
2024-02-23T12:02:00,thc,9.46
2024-02-23T12:03:00,thc,5.35
2024-02-23T12:04:00,thc,5.32
2024-02-23T12:05:00,thc,6.81
2024-02-23T12:06:00,thc,6.80
2024-02-23T12:07:00,thc,5.35
2024-02-23T12:08:00,thc,5.47
2024-02-23T12:09:00,thc,9.44
2024-02-23T12:10:00,thc,11.28
2024-02-23T12:11:00,thc,4.04
2024-02-23T12:12:00,thc,10.74
2024-02-23T12:13:00,thc,8.05
2024-02-23T12:14:00,thc,3.99
2024-02-23T12:15:00,thc,3.99
2024-02-23T12:16:00,thc,8.09
2024-02-23T12:17:00,thc,7.14
2024-02-23T12:18:00,thc,2.67
2024-02-23T12:19:00,thc,2.70
2024-02-23T12:20:00,thc,6.69
2024-02-23T12:21:00,thc,6.69
2024-02-23T12:22:00,thc,2.72
2024-02-23T12:23:00,thc,2.81
2024-02-23T12:24:00,thc,6.97
2024-02-23T12:25:00,thc,2.69
2024-02-23T12:26:00,thc,2.96
2024-02-23T12:27:00,thc,2.65
2024-02-23T12:28:00,thc,7.53
2024-02-23T12:29:00,thc,2.93
2024-02-23T12:30:00,thc,3.15
2024-02-23T12:31:00,thc,8.57
2024-02-23T12:32:00,thc,8.44
2024-02-23T12:33:00,thc,4.40
2024-02-23T12:34:00,thc,4.39
2024-02-23T12:35:00,thc,8.10
2024-02-23T12:36:00,thc,6.79
2024-02-23T12:37:00,thc,3.84
2024-02-23T12:38:00,thc,2.76
2024-02-23T12:39:00,thc,6.77
2024-02-23T12:40:00,thc,2.87
2024-02-23T12:41:00,thc,2.97
2024-02-23T12:42:00,thc,3.22
2024-02-23T12:43:00,thc,7.04
2024-02-23T12:44:00,thc,2.96
2024-02-23T12:45:00,thc,3.07
2024-02-23T12:46:00,thc,8.30
2024-02-23T12:47:00,thc,8.16
2024-02-23T12:48:00,thc,3.03
2024-02-23T12:49:00,thc,3.15
2024-02-23T12:50:00,thc,8.22
2024-02-23T12:51:00,thc,7.05
2024-02-23T12:52:00,thc,3.26
2024-02-23T12:53:00,thc,2.84
2024-02-23T12:54:00,thc,3.85
2024-02-23T12:55:00,thc,2.74
2024-02-23T12:56:00,thc,3.73
2024-02-23T12:57:00,thc,3.88
2024-02-23T12:58:00,thc,2.96
2024-02-23T12:59:00,thc,2.86
2024-02-23T13:00:00,thc,2.84
2024-02-23T13:01:00,thc,2.79
2024-02-23T13:02:00,thc,2.60
2024-02-23T13:03:00,thc,2.59
2024-02-23T13:04:00,thc,2.58
2024-02-23T13:05:00,thc,2.42
2024-02-23T13:06:00,thc,2.46
2024-02-23T13:07:00,thc,2.47
2024-02-23T13:08:00,thc,2.56
2024-02-23T13:09:00,thc,2.60
2024-02-23T13:10:00,thc,2.56
2024-02-23T13:11:00,thc,2.49
2024-02-23T13:12:00,thc,2.49
2024-02-23T13:13:00,thc,2.55
2024-02-23T13:14:00,thc,3.60
2024-02-23T13:15:00,thc,5.35
2024-02-23T13:16:00,thc,5.31
2024-02-23T13:17:00,thc,5.32
2024-02-23T13:18:00,thc,5.29
2024-02-23T13:19:00,thc,5.24
2024-02-23T13:20:00,thc,4.30
2024-02-23T13:21:00,thc,4.26
2024-02-23T13:22:00,thc,4.02
2024-02-23T13:23:00,thc,2.69
2024-02-23T13:24:00,thc,2.70
2024-02-23T13:25:00,thc,2.72
2024-02-23T13:26:00,thc,2.68
2024-02-23T13:27:00,thc,2.63
2024-02-23T13:28:00,thc,2.58
2024-02-23T13:29:00,thc,2.64
2024-02-23T13:30:00,thc,2.68
2024-02-23T13:31:00,thc,2.67
2024-02-23T13:32:00,thc,2.76
2024-02-23T13:33:00,thc,2.76
2024-02-23T13:34:00,thc,3.07
2024-02-23T13:35:00,thc,2.81
2024-02-23T13:36:00,thc,2.76
2024-02-23T13:37:00,thc,2.75
2024-02-23T13:38:00,thc,2.67
2024-02-23T13:39:00,thc,2.57
2024-02-23T13:40:00,thc,2.57
2024-02-23T13:41:00,thc,2.54
2024-02-23T13:42:00,thc,2.54
2024-02-23T13:43:00,thc,2.39
2024-02-23T13:44:00,thc,2.38